[[{"header":{"parameterUnit":"m.s-1","parameterCategory":2,"la1":30.2991,"la2":30.254,"lo1":-89.0895,"lo2":-89.0444,"dy":0.0017,"dx":0.0017,"nx":28,"ny":28,"refTime":"2023-04-20T21:00:00:Z","depth":"0","parameterNumber":2,"parameterNumberName":"U-component_of_CURRENTS"},"data":[0,0,0,0,0,0,0,0,0,0,0,0,0,0,0,0,0,0,0,0,0,0,0,0,0,0,0,0,0,0,0,0,0,0,0,0,0,0,0,0,0,0,0,0,0,0,0,0,0,0,0,0,0,0,0,0,0,0,0.1712,0.1713,0,0.1766,0.1767,0.1767,0.1806,0.1806,0.1807,0.1807,0.1809,0.1808,0.1808,0,0,0,0,0,0,0,0,0,0,0,0,0,0.1604,0.1606,0.1712,0.1713,0.1714,0.1766,0.1767,0.1767,0.1805,0.1806,0.1807,0.1808,0.1809,0.1808,0.1808,0,0,0,0,0,0,0,0,0,0,0,0,0,0.1651,0.1606,0.1711,0.1741,0.1745,0.1766,0.1767,0.1767,0.1805,0.1806,0.1807,0.1808,0.1809,0.1808,0.1808,0.1786,0,0,0.1805,0.1805,0,0,0,0,0,0,0,0,0.1649,0.1655,0.1736,0.1739,0.1743,0.1783,0.173,0.1772,0.1805,0.1779,0.1807,0.1808,0.1796,0.1797,0.1802,0.1786,0.1786,0.1805,0.1805,0.1804,0.1804,0,0,0,0,0,0,0,0.1645,0.1653,0.173,0.1737,0.1741,0.174,0.1747,0.1738,0.1779,0.1781,0.1785,0.1796,0.1798,0.1802,0.1802,0.1786,0.1805,0.1805,0.1804,0.1804,0.1784,0.1783,0,0,0,0,0,0,0.1646,0.165,0.1729,0.1732,0.17,0.1741,0.175,0.1767,0.178,0.1785,0.1795,0.1797,0.1803,0.1803,0.1802,0.1792,0.1804,0.1804,0.1803,0.1784,0.1784,0.1783,0,0,0,0,0,0,0.1643,0.1652,0.1726,0.1694,0.1704,0.1743,0.1761,0.1767,0.1772,0.1792,0.1794,0.1794,0.1804,0.1803,0.1803,0.1792,0.1803,0.1803,0.1784,0.1784,0.1784,0.1763,0,0,0,0,0,0,0.164,0.1651,0.1653,0.1694,0.1706,0.173,0.1761,0.1768,0.1779,0.1783,0.1791,0.1793,0.1804,0.1804,0.1802,0.1791,0.1802,0.1784,0.1784,0.1784,0.1763,0.1762,0.176,0,0,0,0,0,0.1636,0.163,0.1652,0.1662,0.171,0.173,0.1734,0.1763,0.1778,0.1771,0.1792,0.1793,0.1802,0.1804,0.1801,0.179,0.1784,0.1784,0.1784,0.1764,0.1762,0.176,0,0,0,0,0,0,0.1566,0.1636,0.166,0.1672,0.1698,0.1737,0.173,0.1756,0.1766,0.1766,0.1789,0.1791,0.1789,0.1791,0.1792,0.1785,0.1793,0.1792,0.1779,0.1777,0.1776,0.1765,0.1802,0,0,0,0,0,0.1557,0.1574,0.1635,0.1632,0.1651,0.1689,0.1698,0.172,0.1742,0.1748,0.1763,0.1775,0.1785,0.1783,0.1788,0.1776,0.1774,0.1769,0.1768,0.1766,0.1757,0.1754,0.1751,0.1783,0.1783,0.1783,0,0,0.1522,0.1563,0.1569,0.1619,0.164,0.1654,0.1695,0.1702,0.1711,0.1743,0.1747,0.1766,0.1782,0.178,0.1778,0.178,0.1755,0.1766,0.1765,0.1756,0.1754,0.175,0.1748,0.1783,0.1783,0.1783,0,0,0.1463,0.1505,0.1506,0.1535,0.1576,0.1607,0.161,0.1655,0.1674,0.1685,0.1717,0.1733,0.1738,0.1757,0.1766,0.1754,0.1749,0.1752,0.1731,0.1728,0.1726,0.1723,0.171,0.1707,0.1749,0.1749,0.1749,0,0.1414,0.1442,0.15,0.1513,0.153,0.1586,0.1587,0.1612,0.1649,0.1662,0.1679,0.1715,0.1729,0.174,0.1744,0.1749,0.1742,0.1737,0.1726,0.1723,0.1721,0.1708,0.1705,0.1748,0.1748,0.1748,0.1748,0,0.138,0.1394,0.139,0.1438,0.1459,0.1462,0.1523,0.1541,0.1574,0.1606,0.163,0.1666,0.1687,0.1698,0.1717,0.1712,0.171,0.1726,0.1728,0.1716,0.1704,0.17,0.1747,0.1747,0.1747,0.1748,0,0,0.1285,0.1355,0.1352,0.1366,0.1426,0.1437,0.1458,0.1498,0.1513,0.1553,0.1569,0.1606,0.1635,0.1647,0.1679,0.1683,0.1667,0.1693,0.1693,0.1675,0.1648,0.1641,0.1637,0.1678,0.1677,0.1677,0.1644,0,0.1235,0.1248,0.1299,0.1292,0.1306,0.1371,0.1388,0.1428,0.1473,0.15,0.1551,0.1573,0.1613,0.1626,0.1638,0.1665,0.1657,0.1673,0.1666,0.1665,0.1657,0.1633,0.1614,0.1582,0.164,0.164,0.1639,0,0.1192,0.1211,0.1208,0.1246,0.1258,0.1261,0.131,0.133,0.1391,0.1425,0.1465,0.1513,0.1541,0.1572,0.16,0.1607,0.1615,0.1635,0.1634,0.1631,0.1652,0.1605,0.1574,0.1598,0.1634,0.1635,0.1635,0,0.1116,0.1143,0.1139,0.1153,0.1208,0.1212,0.1236,0.1298,0.1319,0.1371,0.1391,0.1445,0.1467,0.1496,0.1551,0.1567,0.1571,0.1598,0.1596,0.1595,0.1579,0.1578,0.1565,0.1591,0.1591,0.1591,0.1591,0,0.1057,0.1045,0.1101,0.1098,0.1091,0.1146,0.1147,0.1189,0.1238,0.1252,0.1336,0.1361,0.1447,0.1479,0.152,0.1545,0.1542,0.1578,0.1583,0.1571,0.157,0.1591,0.1557,0.159,0.159,0.159,0.159,0,0.0971,0.1008,0.1,0.1044,0.1056,0.1045,0.1087,0.1096,0.1148,0.1169,0.1181,0.128,0.1332,0.1411,0.146,0.1497,0.1518,0.153,0.1507,0.151,0.1541,0.1505,0.1467,0.1471,0.152,0.152,0.152,0,0.0927,0.092,0.0951,0.0948,0.0961,0.0966,0.0979,0.1037,0.1054,0.1121,0.1125,0.1192,0.1244,0.1323,0.1405,0.1461,0.1482,0.1472,0.1503,0.1525,0.1489,0.15,0.1508,0.147,0.1469,0.1469,0.1468,0,0.0844,0.0857,0.0863,0.0867,0.0868,0.0877,0.0897,0.0905,0.0972,0.1002,0.1051,0.1092,0.1187,0.126,0.1343,0.1392,0.1457,0.1461,0.1489,0.1442,0.1443,0.1456,0.1506,0.1463,0.1463,0.1464,0.1464,0.1464,0.0771,0.0758,0.0777,0.0779,0.0785,0.0792,0.0792,0.0833,0.086,0.0904,0.0957,0.0993,0.1116,0.1247,0.1315,0.142,0.1408,0.1453,0.1405,0.1415,0.1423,0.1454,0.1419,0.142,0.142,0.142,0.142,0,0.0668,0.0683,0.0692,0.0696,0.0694,0.072,0.0744,0.0752,0.078,0.0814,0.0851,0.0919,0.1029,0.1162,0.1282,0.1338,0.141,0.1388,0.1401,0.1412,0.1449,0.1455,0.1419,0.1419,0.1419,0.1419,0.1419,0.1419,0.0611,0.0594,0.0623,0.0611,0.0622,0.0607,0.0615,0.0645,0.0668,0.0692,0.0709,0.074,0.0848,0.1072,0.1212,0.1275,0.1316,0.1332,0.1358,0.1387,0.1391,0.1395,0.1399,0.1351,0.1351,0.1372,0.1372,0.1371]},{"header":{"parameterUnit":"m.s-1","parameterCategory":2,"la1":30.2991,"la2":30.254,"lo1":-89.0895,"lo2":-89.0444,"dy":0.0017,"dx":0.0017,"nx":28,"ny":28,"refTime":"2023-04-20T21:00:00:Z","depth":"0","parameterNumber":3,"parameterNumberName":"V-component_of_CURRENTS"},"data":[0,0,0,0,0,0,0,0,0,0,0,0,0,0,0,0,0,0,0,0,0,0,0,0,0,0,0,0,0,0,0,0,0,0,0,0,0,0,0,0,0,0,0,0,0,0,0,0,0,0,0,0,0,0,0,0,0,0,-0.25,-0.2501,0,-0.2491,-0.2491,-0.249,-0.2456,-0.2456,-0.2456,-0.2456,-0.243,-0.243,-0.2429,0,0,0,0,0,0,0,0,0,0,0,0,0,-0.2419,-0.2421,-0.25,-0.2501,-0.2501,-0.2491,-0.2491,-0.249,-0.2456,-0.2456,-0.2456,-0.2456,-0.243,-0.243,-0.2429,0,0,0,0,0,0,0,0,0,0,0,0,0,-0.2432,-0.2421,-0.25,-0.2487,-0.2486,-0.2491,-0.2491,-0.249,-0.2457,-0.2456,-0.2456,-0.2455,-0.2431,-0.243,-0.2429,-0.2433,0,0,-0.2427,-0.2427,0,0,0,0,0,0,0,0,-0.2431,-0.2434,-0.2489,-0.2488,-0.2487,-0.2479,-0.2453,-0.2472,-0.2457,-0.2462,-0.2456,-0.2455,-0.2449,-0.2447,-0.2438,-0.2432,-0.2431,-0.2427,-0.2427,-0.2427,-0.2426,0,0,0,0,0,0,0,-0.243,-0.2434,-0.2491,-0.2489,-0.2488,-0.2458,-0.246,-0.2456,-0.2453,-0.2462,-0.246,-0.2468,-0.2448,-0.2439,-0.2438,-0.2431,-0.2427,-0.2427,-0.2426,-0.2426,-0.243,-0.2431,0,0,0,0,0,0,-0.2447,-0.2434,-0.2492,-0.2491,-0.2464,-0.2461,-0.2462,-0.2478,-0.2454,-0.2451,-0.2469,-0.2467,-0.244,-0.2438,-0.2437,-0.2444,-0.2427,-0.2426,-0.2426,-0.243,-0.243,-0.2431,0,0,0,0,0,0,-0.2445,-0.2453,-0.2492,-0.2466,-0.2469,-0.2464,-0.2481,-0.2478,-0.2474,-0.246,-0.2456,-0.2469,-0.244,-0.2438,-0.2434,-0.2443,-0.2426,-0.2425,-0.2429,-0.243,-0.2431,-0.2457,0,0,0,0,0,0,-0.2443,-0.2452,-0.2466,-0.2468,-0.2472,-0.2501,-0.2482,-0.2478,-0.2482,-0.2479,-0.2459,-0.2456,-0.244,-0.2435,-0.2433,-0.2442,-0.2425,-0.2429,-0.243,-0.243,-0.2455,-0.2458,-0.2461,0,0,0,0,0,-0.244,-0.2467,-0.2467,-0.2474,-0.2493,-0.2503,-0.2501,-0.2491,-0.2482,-0.2484,-0.2468,-0.2457,-0.244,-0.2435,-0.2433,-0.2441,-0.2428,-0.2429,-0.243,-0.2454,-0.2458,-0.2461,0,0,0,0,0,0,-0.2441,-0.2466,-0.2467,-0.25,-0.2504,-0.2499,-0.2503,-0.2498,-0.2486,-0.2481,-0.2462,-0.2458,-0.2456,-0.2449,-0.2444,-0.2446,-0.2433,-0.2434,-0.2452,-0.2455,-0.2458,-0.2456,-0.2424,0,0,0,0,0,-0.245,-0.2469,-0.2487,-0.2507,-0.2516,-0.2509,-0.2512,-0.2506,-0.25,-0.2494,-0.2482,-0.247,-0.2459,-0.2457,-0.2445,-0.2451,-0.2438,-0.2456,-0.2459,-0.2461,-0.2459,-0.2448,-0.2449,-0.2435,-0.2435,-0.2435,0,0,-0.2454,-0.247,-0.2481,-0.2507,-0.2507,-0.2515,-0.2508,-0.2516,-0.2515,-0.2494,-0.2488,-0.2478,-0.2461,-0.2459,-0.2459,-0.2456,-0.246,-0.2463,-0.2465,-0.2461,-0.2449,-0.245,-0.2451,-0.2435,-0.2435,-0.2435,0,0,-0.2464,-0.2488,-0.2504,-0.2514,-0.2527,-0.2523,-0.253,-0.2533,-0.2527,-0.2526,-0.2507,-0.2504,-0.2493,-0.2481,-0.2473,-0.2489,-0.2471,-0.249,-0.2506,-0.2496,-0.2497,-0.2497,-0.2487,-0.2486,-0.2496,-0.2496,-0.2496,0,-0.246,-0.2492,-0.2508,-0.2524,-0.253,-0.2529,-0.2539,-0.2535,-0.2533,-0.2528,-0.2528,-0.251,-0.2501,-0.2492,-0.2497,-0.2494,-0.2485,-0.2494,-0.2499,-0.2499,-0.2499,-0.2488,-0.2487,-0.2497,-0.2497,-0.2497,-0.2497,0,-0.2488,-0.2505,-0.2516,-0.2531,-0.254,-0.2549,-0.2555,-0.2555,-0.2551,-0.2544,-0.2541,-0.2532,-0.2519,-0.2524,-0.2515,-0.2515,-0.2506,-0.25,-0.2489,-0.2502,-0.249,-0.2488,-0.2499,-0.2499,-0.2499,-0.2498,0,0,-0.2471,-0.2524,-0.2522,-0.2529,-0.2546,-0.2551,-0.2554,-0.2553,-0.2546,-0.2552,-0.2543,-0.2543,-0.2539,-0.2531,-0.2526,-0.2528,-0.2527,-0.252,-0.2519,-0.2507,-0.2503,-0.2492,-0.2489,-0.2521,-0.2521,-0.252,-0.2495,0,-0.2472,-0.2512,-0.2533,-0.2541,-0.2556,-0.256,-0.2557,-0.2555,-0.2551,-0.2542,-0.2542,-0.2529,-0.2541,-0.2535,-0.254,-0.2522,-0.2523,-0.2534,-0.2494,-0.2492,-0.2479,-0.2487,-0.2478,-0.2454,-0.2494,-0.2493,-0.2493,0,-0.2475,-0.2503,-0.2532,-0.2546,-0.2551,-0.2552,-0.2545,-0.2543,-0.2532,-0.2529,-0.2528,-0.2522,-0.2521,-0.2529,-0.2519,-0.2525,-0.2517,-0.2512,-0.2511,-0.2489,-0.2479,-0.2447,-0.2449,-0.2403,-0.249,-0.2491,-0.2491,0,-0.2447,-0.2484,-0.2509,-0.2519,-0.2544,-0.2543,-0.254,-0.2535,-0.2524,-0.2515,-0.2506,-0.2508,-0.2493,-0.2498,-0.2494,-0.2503,-0.2479,-0.2485,-0.2469,-0.2468,-0.2445,-0.2443,-0.2395,-0.2476,-0.2477,-0.2477,-0.2477,0,-0.243,-0.2432,-0.25,-0.251,-0.2512,-0.253,-0.2517,-0.2513,-0.2501,-0.2483,-0.2493,-0.2483,-0.2484,-0.2474,-0.2482,-0.2468,-0.2466,-0.247,-0.2461,-0.2455,-0.2454,-0.24,-0.2349,-0.2476,-0.2476,-0.2476,-0.2476,0,-0.2369,-0.2422,-0.2439,-0.2487,-0.25,-0.249,-0.2495,-0.2485,-0.248,-0.2456,-0.245,-0.2445,-0.2428,-0.2432,-0.2421,-0.2438,-0.2427,-0.2429,-0.2422,-0.2413,-0.2367,-0.2317,-0.2337,-0.2378,-0.2413,-0.2412,-0.2412,0,-0.2333,-0.2348,-0.2418,-0.2429,-0.2444,-0.245,-0.2454,-0.2463,-0.2456,-0.2437,-0.2424,-0.2398,-0.2389,-0.2373,-0.2383,-0.2386,-0.2385,-0.2383,-0.2404,-0.2359,-0.2297,-0.2361,-0.24,-0.2385,-0.2384,-0.2384,-0.2383,0,-0.2248,-0.2286,-0.2316,-0.237,-0.2385,-0.2395,-0.2406,-0.2406,-0.2412,-0.2408,-0.2396,-0.2387,-0.2361,-0.2353,-0.2343,-0.2354,-0.2377,-0.2374,-0.2326,-0.2267,-0.2333,-0.237,-0.2405,-0.2379,-0.238,-0.238,-0.238,-0.238,-0.2158,-0.2175,-0.2248,-0.2283,-0.2311,-0.2332,-0.2327,-0.2363,-0.2364,-0.2347,-0.2363,-0.2329,-0.232,-0.2306,-0.2316,-0.2283,-0.2339,-0.2287,-0.223,-0.2302,-0.2343,-0.2371,-0.2336,-0.2336,-0.2336,-0.2336,-0.2336,0,-0.2037,-0.2104,-0.2153,-0.2207,-0.2231,-0.2266,-0.2287,-0.2284,-0.2301,-0.2304,-0.2301,-0.2241,-0.2221,-0.2194,-0.214,-0.2126,-0.2245,-0.2125,-0.2192,-0.2241,-0.2248,-0.2245,-0.2191,-0.2191,-0.2191,-0.2191,-0.2191,-0.2191,-0.1979,-0.2012,-0.2081,-0.2115,-0.2157,-0.2157,-0.216,-0.218,-0.2185,-0.217,-0.2126,-0.2102,-0.201,-0.1965,-0.1905,-0.1937,-0.1984,-0.2025,-0.2064,-0.1997,-0.2009,-0.202,-0.2009,-0.1905,-0.1905,-0.2154,-0.2154,-0.2155]}],[{"header":{"parameterUnit":"m.s-1","parameterCategory":2,"la1":30.2991,"la2":30.254,"lo1":-89.0895,"lo2":-89.0444,"dy":0.0017,"dx":0.0017,"nx":28,"ny":28,"refTime":"2023-04-20T21:00:00:Z","depth":"2","parameterNumber":2,"parameterNumberName":"U-component_of_CURRENTS"},"data":[0,0,0,0,0,0,0,0,0,0,0,0,0,0,0,0,0,0,0,0,0,0,0,0,0,0,0,0,0,0,0,0,0,0,0,0,0,0,0,0,0,0,0,0,0,0,0,0,0,0,0,0,0,0,0,0,0,0,0.0576,0.0575,0,0.0517,0.0516,0.0516,0.0488,0.0488,0.0488,0.0488,0.0486,0.0486,0.0486,0,0,0,0,0,0,0,0,0,0,0,0,0,0.067,0.0669,0.0576,0.0575,0.0574,0.0517,0.0516,0.0516,0.0488,0.0488,0.0488,0.0488,0.0486,0.0486,0.0486,0,0,0,0,0,0,0,0,0,0,0,0,0,0.0624,0.0668,0.0576,0.0552,0.0549,0.0517,0.0516,0.0516,0.0488,0.0488,0.0488,0.0487,0.0486,0.0486,0.0486,0.049,0,0,0.0486,0.0486,0,0,0,0,0,0,0,0,0.0627,0.0621,0.0557,0.0554,0.0551,0.0508,0.0549,0.0509,0.0488,0.0513,0.0488,0.0487,0.0498,0.0497,0.0488,0.049,0.049,0.0486,0.0486,0.0486,0.0486,0,0,0,0,0,0,0,0.063,0.0623,0.0554,0.0556,0.0552,0.0546,0.054,0.0541,0.051,0.0511,0.0508,0.0499,0.0497,0.0488,0.0488,0.049,0.0486,0.0486,0.0487,0.0487,0.0547,0.0548,0,0,0,0,0,0,0.0633,0.0626,0.0556,0.0552,0.0587,0.0545,0.0537,0.0523,0.0508,0.0505,0.0499,0.0498,0.0488,0.0487,0.0488,0.0519,0.0486,0.0487,0.0487,0.0545,0.0547,0.0549,0,0,0,0,0,0,0.0635,0.0627,0.0559,0.0587,0.0578,0.0543,0.0528,0.0522,0.0515,0.0498,0.0496,0.0498,0.0487,0.0487,0.0513,0.0517,0.0487,0.0487,0.0543,0.0546,0.0548,0.0564,0,0,0,0,0,0,0.0638,0.0629,0.0627,0.0587,0.0576,0.0545,0.0528,0.0521,0.0509,0.0506,0.0497,0.0496,0.0487,0.0514,0.0514,0.0517,0.0487,0.0541,0.0545,0.0547,0.0562,0.0567,0.0571,0,0,0,0,0,0.0642,0.0638,0.0628,0.0619,0.0573,0.0545,0.054,0.0516,0.0509,0.0509,0.0518,0.0496,0.0531,0.0515,0.0515,0.0518,0.054,0.0544,0.0547,0.056,0.0566,0.0571,0,0,0,0,0,0,0.0684,0.0633,0.0621,0.0604,0.058,0.054,0.0535,0.0521,0.0524,0.0526,0.0517,0.0518,0.0543,0.0538,0.052,0.0548,0.0531,0.0535,0.0541,0.0547,0.0552,0.0532,0.0487,0,0,0,0,0,0.0692,0.0671,0.063,0.0619,0.0606,0.0573,0.0561,0.0544,0.0535,0.0534,0.0529,0.0537,0.0556,0.0558,0.0569,0.0582,0.0578,0.0587,0.0591,0.0595,0.0582,0.0596,0.06,0.056,0.056,0.056,0,0,0.0705,0.0674,0.0664,0.0626,0.0603,0.0581,0.0566,0.0546,0.0538,0.0537,0.0538,0.0555,0.0567,0.0587,0.0596,0.0581,0.061,0.06,0.0602,0.0587,0.06,0.0603,0.0606,0.0563,0.0562,0.0562,0,0,0.0709,0.0693,0.0671,0.065,0.0613,0.0595,0.0592,0.0558,0.0556,0.0561,0.0569,0.0594,0.06,0.0614,0.0623,0.0663,0.064,0.0666,0.0662,0.0676,0.0678,0.068,0.0694,0.0697,0.066,0.0661,0.0661,0,0.0727,0.0688,0.0666,0.0638,0.0619,0.0602,0.058,0.0578,0.0561,0.057,0.0565,0.0602,0.0611,0.0646,0.0658,0.0669,0.0671,0.0635,0.0679,0.0681,0.0683,0.0696,0.0699,0.0662,0.0662,0.0661,0.0661,0,0.0703,0.0678,0.0666,0.0622,0.061,0.0589,0.0575,0.0579,0.0577,0.0574,0.0607,0.0628,0.0645,0.0659,0.0665,0.0691,0.0688,0.0687,0.0657,0.0687,0.07,0.0703,0.0663,0.0663,0.0663,0.0662,0,0,0.0714,0.0659,0.0654,0.0627,0.0597,0.0578,0.0587,0.0584,0.0592,0.0598,0.0613,0.0649,0.0657,0.0669,0.0687,0.0696,0.0719,0.0689,0.069,0.0688,0.0747,0.0758,0.0762,0.0721,0.0722,0.0722,0.0755,0,0.0697,0.0647,0.0628,0.059,0.0559,0.0559,0.0564,0.057,0.0586,0.0605,0.0639,0.0662,0.0663,0.0677,0.0688,0.0717,0.0725,0.071,0.073,0.073,0.0724,0.0765,0.0599,0.0615,0.0758,0.0758,0.0758,0,0.0666,0.0635,0.0597,0.0558,0.0548,0.0535,0.0544,0.0545,0.0585,0.0602,0.0633,0.0659,0.0694,0.0685,0.0726,0.0714,0.0724,0.0739,0.0741,0.074,0.0746,0.0607,0.0615,0.0763,0.0763,0.0762,0.0762,0,0.0659,0.0608,0.0579,0.0563,0.053,0.0528,0.0519,0.0545,0.055,0.0603,0.0616,0.0665,0.0685,0.0708,0.0743,0.0732,0.0782,0.0775,0.0794,0.0795,0.0651,0.0639,0.079,0.079,0.079,0.079,0.079,0,0.063,0.0598,0.0572,0.055,0.0525,0.0509,0.0502,0.0516,0.0538,0.0545,0.0605,0.0622,0.0687,0.0728,0.075,0.0788,0.0789,0.0796,0.0805,0.0657,0.0646,0.0766,0.0763,0.0792,0.0791,0.0791,0.0791,0,0.0599,0.0588,0.0546,0.0521,0.0514,0.0492,0.0469,0.0471,0.0496,0.0511,0.0526,0.0592,0.0646,0.0716,0.077,0.0796,0.0835,0.0844,0.0673,0.0662,0.0834,0.0831,0.0866,0.0867,0.0867,0.0868,0.0868,0,0.056,0.054,0.0525,0.0509,0.049,0.0461,0.0451,0.0455,0.0451,0.0482,0.0487,0.0555,0.0593,0.0699,0.0754,0.0818,0.0841,0.0714,0.0668,0.0836,0.0842,0.0839,0.0836,0.0484,0.0481,0.0479,0.0477,0,0.0477,0.0494,0.0475,0.0461,0.0445,0.0424,0.04,0.0398,0.0408,0.0423,0.0442,0.0474,0.0559,0.0567,0.0673,0.0678,0.0697,0.0673,0.0878,0.0508,0.0483,0.0487,0.0495,0.0457,0.0459,0.046,0.0461,0.0462,0.0414,0.0399,0.0401,0.0386,0.0382,0.038,0.0356,0.036,0.0358,0.036,0.0383,0.0372,0.0405,0.0482,0.054,0.0579,0.0621,0.056,0.0562,0.0569,0.0536,0.0516,0.0489,0.0491,0.0493,0.0494,0.0496,0,0.0299,0.0314,0.031,0.0298,0.0286,0.0315,0.0312,0.0292,0.0293,0.0291,0.0291,0.0167,0.0237,0.029,0.0317,0.0398,0.0368,0.0379,0.0285,0.0301,0.0317,0.027,0.0153,0.0154,0.0154,0.0155,0,0,0.0236,0.021,0.0232,0.0196,0.0205,0.0178,0.0184,0.0194,0.0177,0.0069,0.001,0.0123,0.0157,0.0119,0.0161,0.0152,0.0225,0.014,0.0383,0.0275,0.0292,0.0361,0.0301,0,0,0,0,0]},{"header":{"parameterUnit":"m.s-1","parameterCategory":2,"la1":30.2991,"la2":30.254,"lo1":-89.0895,"lo2":-89.0444,"dy":0.0017,"dx":0.0017,"nx":28,"ny":28,"refTime":"2023-04-20T21:00:00:Z","depth":"2","parameterNumber":3,"parameterNumberName":"V-component_of_CURRENTS"},"data":[0,0,0,0,0,0,0,0,0,0,0,0,0,0,0,0,0,0,0,0,0,0,0,0,0,0,0,0,0,0,0,0,0,0,0,0,0,0,0,0,0,0,0,0,0,0,0,0,0,0,0,0,0,0,0,0,0,0,0.0114,0.0114,0,0.0151,0.0152,0.0153,0.0136,0.0135,0.0134,0.0133,0.0125,0.0125,0.0126,0,0,0,0,0,0,0,0,0,0,0,0,0,0.0098,0.0098,0.0114,0.0114,0.0114,0.0151,0.0152,0.0153,0.0137,0.0135,0.0134,0.0132,0.0124,0.0125,0.0126,0,0,0,0,0,0,0,0,0,0,0,0,0,0.012,0.0098,0.0114,0.0108,0.0108,0.0151,0.0152,0.0153,0.0137,0.0135,0.0133,0.0132,0.0124,0.0125,0.0127,0.0171,0,0,0.0131,0.0131,0,0,0,0,0,0,0,0,0.0119,0.0121,0.0109,0.0109,0.0108,0.0135,0.0143,0.0156,0.0137,0.0129,0.0133,0.0131,0.0123,0.0124,0.014,0.017,0.017,0.0131,0.0132,0.0132,0.0132,0,0,0,0,0,0,0,0.0117,0.0119,0.0132,0.0109,0.0109,0.0128,0.0129,0.0146,0.0137,0.013,0.0128,0.0128,0.0123,0.0139,0.014,0.017,0.0131,0.0132,0.0133,0.0133,0.0143,0.0142,0,0,0,0,0,0,0.0105,0.0118,0.0131,0.0133,0.0106,0.0129,0.013,0.0131,0.0138,0.0137,0.0129,0.0127,0.0138,0.0138,0.0139,0.0115,0.0132,0.0133,0.0134,0.0143,0.0143,0.0142,0,0,0,0,0,0,0.0104,0.0106,0.0129,0.0124,0.0127,0.013,0.0132,0.0132,0.0107,0.0138,0.0136,0.0098,0.0136,0.0138,0.014,0.0117,0.0134,0.0135,0.0144,0.0143,0.0142,0.0116,0,0,0,0,0,0,0.0104,0.0105,0.0086,0.0123,0.0127,0.0137,0.0133,0.0134,0.0111,0.0107,0.0111,0.0111,0.0135,0.0138,0.0141,0.0119,0.0136,0.0145,0.0144,0.0143,0.0117,0.0114,0.0111,0,0,0,0,0,0.0103,0.0099,0.0085,0.0086,0.0106,0.0136,0.0141,0.0139,0.0111,0.0107,0.0112,0.0109,0.0132,0.014,0.0143,0.0121,0.0145,0.0144,0.0143,0.0119,0.0115,0.0111,0,0,0,0,0,0,0.0087,0.0097,0.0083,0.0081,0.0093,0.0132,0.012,0.0116,0.0118,0.0093,0.0117,0.0119,0.0112,0.0121,0.0127,0.0119,0.0132,0.0132,0.0112,0.0109,0.0106,0.0102,0.0137,0,0,0,0,0,0.0072,0.0063,0.0083,0.0076,0.0073,0.0084,0.0085,0.0083,0.0097,0.0092,0.0098,0.01,0.012,0.0114,0.0134,0.0133,0.0128,0.0116,0.0113,0.011,0.0109,0.0092,0.0087,0.0138,0.0138,0.0138,0,0,0.0066,0.0065,0.0062,0.0069,0.007,0.0081,0.008,0.007,0.0078,0.0092,0.0085,0.0092,0.0119,0.0126,0.012,0.0122,0.009,0.0109,0.0107,0.0106,0.009,0.0085,0.0081,0.0137,0.0137,0.0138,0,0,0.0059,0.0041,0.003,0.0038,0.0028,0.0048,0.0032,0.0045,0.004,0.0046,0.0058,0.0053,0.007,0.0094,0.0108,0.0097,0.0081,0.0082,0.0058,0.0042,0.0037,0.0033,0.0008,0.0002,0.0073,0.0073,0.0073,0,0.0039,0.0035,0.0034,0.0029,0.0032,0.0026,0.0027,0.0039,0.005,0.0052,0.0031,0.0052,0.0063,0.009,0.0081,0.009,0.0069,0.0072,0.0037,0.0034,0.003,0.0005,-0.0001,0.0072,0.0072,0.0072,0.0072,0,0.004,0.0022,0.0015,0.0008,0.0019,0.0013,0.0032,0.0027,0.0008,0.0021,0.0017,0.0034,0.004,0.004,0.0057,0.0039,0.0028,0.0041,0.0046,0.0023,-0.0002,-0.0008,0.007,0.007,0.0071,0.0071,0,0,0.0028,0.0015,0.0005,-0.0005,0.0,0.0012,0.0022,0.0042,0.0042,0.0027,0.0029,0.0041,0.0015,0.0029,0.0035,0.0019,-0.0029,0.0005,0.0005,-0.0021,-0.0087,-0.0024,-0.0024,-0.0033,-0.0034,-0.0035,-0.0099,0,0.0016,-0.0004,0.0005,-0.0002,-0.0007,0.0005,0.0028,0.0041,0.0044,0.0048,0.004,0.0036,0.0023,0.0002,-0.0014,-0.0012,-0.0045,-0.0014,-0.006,-0.0061,-0.0002,-0.0028,0.0055,0.0012,-0.0104,-0.0105,-0.0106,0,0.0013,-0.0003,-0.0026,-0.0012,-0.0013,-0.002,0.0002,0.002,0.004,0.0038,0.002,0.0018,-0.0005,-0.0022,-0.0062,-0.005,-0.0085,-0.009,-0.0093,-0.0026,-0.0008,0.0018,0.0005,-0.0116,-0.0115,-0.0114,-0.0114,0,0.0005,-0.0013,-0.004,-0.0041,-0.0029,-0.0046,-0.0042,-0.0013,0.0006,-0.0001,0.0002,-0.0015,-0.0041,-0.0078,-0.0102,-0.0102,-0.0141,-0.0135,-0.0112,-0.0108,-0.0039,-0.0027,-0.0183,-0.0183,-0.0183,-0.0183,-0.0182,0,0.0012,-0.0007,-0.007,-0.0083,-0.0107,-0.0092,-0.0103,-0.0086,-0.0065,-0.0047,-0.0042,-0.0018,-0.0063,-0.0075,-0.011,-0.0124,-0.0159,-0.0121,-0.0118,-0.0046,-0.0035,-0.014,-0.0134,-0.0185,-0.0184,-0.0184,-0.0184,0,0.0034,-0.0014,-0.0049,-0.0095,-0.012,-0.0147,-0.0157,-0.0141,-0.0129,-0.0108,-0.012,-0.0055,-0.0056,-0.0078,-0.0118,-0.0126,-0.0146,-0.0149,-0.0063,-0.0047,-0.0108,-0.0103,-0.0134,-0.0132,-0.0131,-0.013,-0.0129,0,0.0059,0.0027,-0.0077,-0.0121,-0.016,-0.0205,-0.0214,-0.0199,-0.0176,-0.0112,-0.0092,-0.0069,-0.0007,-0.0012,-0.0012,-0.0048,-0.0108,-0.0025,0.0008,-0.0107,-0.0102,-0.0099,-0.0096,0.0071,0.0073,0.0076,0.0077,0,0.011,0.0034,-0.0001,-0.0118,-0.0182,-0.0201,-0.0229,-0.0214,-0.0179,-0.0152,-0.0078,-0.0019,0.005,0.0124,0.0108,0.0086,-0.0005,0.0019,-0.0132,0.0063,0.0087,0.0092,0.0088,0.0096,0.0094,0.0093,0.0092,0.0091,0.0135,0.0108,0.0006,-0.0087,-0.0162,-0.0194,-0.0182,-0.0195,-0.0166,-0.011,-0.0052,0.009,0.0157,0.0257,0.0191,0.0145,0.0151,0.0128,0.012,0.0111,0.0164,0.0191,0.0228,0.0227,0.0226,0.0225,0.0225,0,0.0188,0.0125,0.0055,-0.0047,-0.0098,-0.0178,-0.0169,-0.0125,-0.0105,-0.0116,-0.006,0.0212,0.0291,0.0329,0.0331,0.0284,0.0244,0.0224,0.0206,0.0194,0.0181,0.0234,0.0317,0.0316,0.0315,0.0314,0,0,0.0214,0.0165,0.0127,0.0035,-0.0054,-0.0072,-0.0069,-0.0042,-0.0033,0.0057,0.0158,0.0212,0.0353,0.0347,0.0309,0.0296,0.0187,0.0258,0.0208,0.0172,0.0155,0.0185,0.0262,0,0,0,0,0]}],[{"header":{"parameterUnit":"m.s-1","parameterCategory":2,"la1":30.2991,"la2":30.254,"lo1":-89.0895,"lo2":-89.0444,"dy":0.0017,"dx":0.0017,"nx":28,"ny":28,"refTime":"2023-04-20T21:00:00:Z","depth":"4","parameterNumber":2,"parameterNumberName":"U-component_of_CURRENTS"},"data":[0,0,0,0,0,0,0,0,0,0,0,0,0,0,0,0,0,0,0,0,0,0,0,0,0,0,0,0,0,0,0,0,0,0,0,0,0,0,0,0,0,0,0,0,0,0,0,0,0,0,0,0,0,0,0,0,0,0,-0.051,-0.0511,0,-0.058,-0.0581,-0.0582,-0.0637,-0.0637,-0.0637,-0.0637,-0.0739,-0.0741,-0.0744,0,0,0,0,0,0,0,0,0,0,0,0,0,-0.049,-0.049,-0.051,-0.0511,-0.0511,-0.058,-0.0581,-0.0583,-0.0637,-0.0637,-0.0637,-0.0637,-0.0738,-0.0741,-0.0744,0,0,0,0,0,0,0,0,0,0,0,0,0,-0.0526,-0.049,-0.051,-0.0544,-0.0548,-0.058,-0.0581,-0.0583,-0.0637,-0.0637,-0.0637,-0.0638,-0.0737,-0.0741,-0.0744,-0.0761,0,0,-0.0756,-0.0757,0,0,0,0,0,0,0,0,-0.0524,-0.0527,-0.0539,-0.0542,-0.0546,-0.0597,-0.0611,-0.0643,-0.0637,-0.0606,-0.0637,-0.0638,-0.0692,-0.0699,-0.0716,-0.0766,-0.077,-0.0756,-0.0758,-0.076,-0.0761,0,0,0,0,0,0,0,-0.0521,-0.0525,-0.0541,-0.0539,-0.0544,-0.0579,-0.0584,-0.0618,-0.065,-0.0609,-0.0612,-0.0615,-0.0695,-0.0712,-0.0719,-0.0772,-0.0756,-0.0759,-0.0762,-0.0763,-0.0891,-0.0892,0,0,0,0,0,0,-0.0502,-0.0522,-0.0539,-0.0543,-0.0532,-0.0578,-0.0584,-0.0583,-0.0649,-0.0658,-0.0614,-0.0617,-0.0706,-0.0714,-0.0723,-0.0708,-0.076,-0.0764,-0.0766,-0.089,-0.0892,-0.0893,0,0,0,0,0,0,-0.0501,-0.0503,-0.0536,-0.0532,-0.0538,-0.0577,-0.0576,-0.0584,-0.06,-0.0652,-0.0662,-0.0621,-0.0706,-0.0717,-0.0764,-0.0713,-0.0765,-0.0769,-0.0889,-0.0891,-0.0892,-0.0702,0,0,0,0,0,0,-0.05,-0.0502,-0.0501,-0.053,-0.0538,-0.0562,-0.0576,-0.0585,-0.0599,-0.0604,-0.0661,-0.0671,-0.0708,-0.0758,-0.0768,-0.0719,-0.0772,-0.0887,-0.089,-0.0892,-0.0707,-0.0697,-0.0689,0,0,0,0,0,-0.0499,-0.0491,-0.0501,-0.0503,-0.0532,-0.0562,-0.057,-0.0601,-0.0599,-0.0614,-0.0653,-0.0669,-0.0779,-0.0762,-0.0773,-0.0724,-0.0886,-0.0889,-0.0892,-0.0711,-0.0699,-0.0689,0,0,0,0,0,0,-0.0482,-0.0497,-0.0507,-0.0504,-0.0534,-0.057,-0.0579,-0.0594,-0.0634,-0.0615,-0.068,-0.0694,-0.0716,-0.0771,-0.075,-0.0781,-0.0837,-0.0842,-0.0696,-0.0686,-0.0677,-0.0667,-0.0775,0,0,0,0,0,-0.0475,-0.0473,-0.0501,-0.0501,-0.051,-0.0541,-0.0556,-0.0556,-0.0591,-0.0607,-0.0616,-0.0664,-0.0737,-0.075,-0.0803,-0.0811,-0.0887,-0.0798,-0.0789,-0.078,-0.0788,-0.0915,-0.0916,-0.0901,-0.0901,-0.0901,0,0,-0.0465,-0.0474,-0.0473,-0.0497,-0.0517,-0.0504,-0.0552,-0.0544,-0.0524,-0.061,-0.0564,-0.0624,-0.0741,-0.0751,-0.0765,-0.0782,-0.0811,-0.0783,-0.0774,-0.0787,-0.0918,-0.0919,-0.092,-0.0903,-0.0903,-0.0903,0,0,-0.0435,-0.0454,-0.0439,-0.045,-0.0455,-0.0467,-0.0461,-0.0452,-0.0454,-0.0424,-0.0505,-0.0567,-0.0578,-0.0686,-0.0748,-0.074,-0.0768,-0.0714,-0.0635,-0.0756,-0.0758,-0.076,-0.078,-0.0787,-0.0696,-0.0696,-0.0696,0,-0.0419,-0.0402,-0.0443,-0.0421,-0.0411,-0.0443,-0.0406,-0.0419,-0.0408,-0.0424,-0.038,-0.0502,-0.0571,-0.0709,-0.0672,-0.0716,-0.0735,-0.0647,-0.0739,-0.0744,-0.0749,-0.0771,-0.078,-0.0687,-0.0688,-0.0689,-0.069,0,-0.0372,-0.0354,-0.0345,-0.0323,-0.0323,-0.0295,-0.0302,-0.0273,-0.0236,-0.0258,-0.0315,-0.0411,-0.0497,-0.0517,-0.0563,-0.0651,-0.0629,-0.0712,-0.0747,-0.0738,-0.0762,-0.0775,-0.0674,-0.0678,-0.068,-0.0682,0,0,-0.0325,-0.0314,-0.0302,-0.0277,-0.0255,-0.0244,-0.0208,-0.0226,-0.0236,-0.0202,-0.0248,-0.0338,-0.0376,-0.0456,-0.0546,-0.0624,-0.0635,-0.0622,-0.0633,-0.0605,-0.0788,-0.0608,-0.0605,-0.0692,-0.0695,-0.0697,-0.0758,0,-0.0271,-0.0219,-0.0215,-0.0142,-0.0117,-0.0118,-0.0097,-0.0107,-0.0127,-0.0167,-0.0302,-0.0369,-0.0367,-0.039,-0.0467,-0.0638,-0.067,-0.0605,-0.0837,-0.0843,-0.0656,-0.0617,-0.0707,-0.0768,-0.0771,-0.0773,-0.0775,0,-0.0206,-0.0186,-0.0116,-0.0067,-0.0053,0.0002,0.0009,0.0022,-0.0087,-0.0101,-0.0195,-0.0293,-0.0429,-0.0422,-0.0636,-0.0564,-0.0624,-0.073,-0.0738,-0.0656,-0.0689,-0.0809,-0.0799,-0.0798,-0.0796,-0.0794,-0.0793,0,-0.0164,-0.01,-0.0044,-0.0023,0.0019,0.007,0.0102,0.0047,0.0017,-0.0084,-0.0129,-0.0289,-0.039,-0.0505,-0.063,-0.0619,-0.085,-0.0911,-0.081,-0.0797,-0.1025,-0.1024,-0.104,-0.104,-0.104,-0.104,-0.104,0,-0.0108,-0.006,-0.0011,0.0022,0.0095,0.0129,0.0162,0.0157,0.008,-0.0003,-0.0094,-0.0198,-0.0406,-0.0552,-0.0634,-0.0717,-0.0851,-0.0775,-0.081,-0.0934,-0.0922,-0.1029,-0.1027,-0.1042,-0.1041,-0.1041,-0.1041,0,-0.0082,-0.0053,0.001,0.0082,0.0113,0.0172,0.0217,0.0202,0.0157,0.0037,0.0014,-0.0163,-0.0285,-0.0459,-0.0693,-0.0726,-0.0846,-0.084,-0.0876,-0.0918,-0.0699,-0.0687,-0.0739,-0.0733,-0.0729,-0.0725,-0.0721,0,-0.0075,-0.0042,0.0044,0.0075,0.012,0.0197,0.0228,0.0243,0.0202,0.0055,-0.0019,-0.015,-0.0255,-0.0452,-0.0583,-0.0694,-0.0711,-0.0754,-0.077,-0.0643,-0.0674,-0.067,-0.0664,-0.0714,-0.0712,-0.0711,-0.071,0,-0.0078,-0.0041,0.0002,0.0062,0.0129,0.0176,0.0224,0.0206,0.0172,0.0107,-0.0041,-0.0133,-0.0268,-0.0395,-0.045,-0.0552,-0.0728,-0.0705,-0.0717,-0.0732,-0.0613,-0.0648,-0.0648,-0.0693,-0.0696,-0.0697,-0.0698,0,-0.0084,-0.0061,-0.0011,0.0049,0.0106,0.0141,0.0181,0.0164,0.0146,0.0007,-0.0035,-0.0173,-0.0274,-0.0317,-0.039,-0.0424,-0.0443,-0.0497,-0.0521,-0.054,-0.0441,-0.0259,-0.0243,0,0,0,0,0,-0.009,-0.0074,-0.0039,0.0032,0.0079,0.0108,0.015,0.0174,0.0143,0.005,0.0014,-0.0082,-0.0173,-0.0233,-0.0231,-0.0274,-0.043,-0.027,-0.05,-0.0601,-0.0621,-0.052,0,0,0,0,0,0,-0.0101,-0.0068,-0.0053,-0.0011,0.0022,0.0075,0.0104,0.0091,0.0058,0.0007,-0.0033,-0.0081,-0.0152,-0.0189,-0.0244,-0.0252,-0.0393,-0.0317,-0.0317,-0.059,-0.0608,-0.0623,-0.0526,0,0,0,0,0]},{"header":{"parameterUnit":"m.s-1","parameterCategory":2,"la1":30.2991,"la2":30.254,"lo1":-89.0895,"lo2":-89.0444,"dy":0.0017,"dx":0.0017,"nx":28,"ny":28,"refTime":"2023-04-20T21:00:00:Z","depth":"4","parameterNumber":3,"parameterNumberName":"V-component_of_CURRENTS"},"data":[0,0,0,0,0,0,0,0,0,0,0,0,0,0,0,0,0,0,0,0,0,0,0,0,0,0,0,0,0,0,0,0,0,0,0,0,0,0,0,0,0,0,0,0,0,0,0,0,0,0,0,0,0,0,0,0,0,0,0.0231,0.0231,0,0.0195,0.0194,0.0194,0.0257,0.0259,0.0261,0.0263,0.0339,0.0339,0.034,0,0,0,0,0,0,0,0,0,0,0,0,0,0.0316,0.0314,0.0232,0.0231,0.023,0.0195,0.0194,0.0194,0.0256,0.0259,0.0261,0.0263,0.0339,0.0339,0.034,0,0,0,0,0,0,0,0,0,0,0,0,0,0.0281,0.0314,0.0232,0.0256,0.0257,0.0195,0.0194,0.0194,0.0256,0.0259,0.0262,0.0265,0.0339,0.0339,0.034,0.0283,0,0,0.0341,0.0341,0,0,0,0,0,0,0,0,0.0283,0.0278,0.0253,0.0254,0.0256,0.0232,0.0252,0.0229,0.0255,0.0258,0.0263,0.0266,0.031,0.0313,0.0301,0.0287,0.029,0.0341,0.0341,0.0341,0.0341,0,0,0,0,0,0,0,0.0285,0.028,0.0219,0.0252,0.0253,0.0254,0.0253,0.0247,0.0272,0.0258,0.0262,0.0254,0.0313,0.03,0.0303,0.0291,0.0341,0.0341,0.0341,0.0341,0.0316,0.0316,0,0,0,0,0,0,0.0284,0.0281,0.022,0.0218,0.0275,0.0251,0.0249,0.0238,0.027,0.0276,0.0252,0.0257,0.0298,0.0303,0.0307,0.0315,0.0341,0.0341,0.0342,0.0317,0.0316,0.0315,0,0,0,0,0,0,0.0286,0.0279,0.0221,0.0248,0.0241,0.0246,0.0233,0.0236,0.0288,0.0263,0.0273,0.0309,0.0301,0.0306,0.0323,0.0317,0.0342,0.0342,0.0318,0.0317,0.0316,0.0286,0,0,0,0,0,0,0.0288,0.028,0.029,0.0247,0.0239,0.022,0.023,0.0233,0.0273,0.0282,0.0313,0.032,0.0303,0.0322,0.0323,0.0318,0.0342,0.0319,0.0318,0.0316,0.0288,0.0284,0.028,0,0,0,0,0,0.0292,0.0284,0.029,0.0284,0.0246,0.0221,0.0218,0.0232,0.0274,0.0293,0.0301,0.0322,0.0313,0.0321,0.0323,0.0317,0.032,0.0318,0.0316,0.029,0.0285,0.0281,0,0,0,0,0,0,0.0328,0.0288,0.0295,0.0279,0.027,0.0232,0.0251,0.0266,0.0285,0.0327,0.031,0.0314,0.032,0.0325,0.0335,0.0304,0.032,0.0319,0.03,0.0295,0.0291,0.0289,0.0342,0,0,0,0,0,0.0336,0.033,0.0294,0.0291,0.0293,0.0288,0.0291,0.0313,0.031,0.0328,0.0331,0.0333,0.0297,0.031,0.029,0.0284,0.0289,0.0281,0.0278,0.0274,0.0272,0.0243,0.0237,0.0309,0.0309,0.0309,0,0,0.035,0.0329,0.0328,0.03,0.0302,0.0292,0.0301,0.0335,0.0326,0.0331,0.0343,0.0328,0.0292,0.0264,0.027,0.0282,0.0262,0.0272,0.0269,0.0269,0.0241,0.0234,0.0227,0.0308,0.0308,0.0308,0,0,0.038,0.0363,0.038,0.0367,0.038,0.035,0.0376,0.0373,0.0381,0.0382,0.0357,0.0335,0.033,0.0261,0.0231,0.0199,0.0237,0.022,0.0206,0.0177,0.0171,0.0166,0.019,0.0187,0.0224,0.0224,0.0224,0,0.0415,0.0405,0.0384,0.0393,0.038,0.0382,0.0396,0.0373,0.0377,0.0351,0.0404,0.0315,0.0307,0.0196,0.0188,0.0188,0.0211,0.0225,0.0172,0.0167,0.0162,0.0188,0.0184,0.0222,0.0223,0.0223,0.0223,0,0.0438,0.0447,0.0456,0.0447,0.0432,0.0447,0.0403,0.0408,0.0424,0.0376,0.0324,0.0286,0.0234,0.0216,0.0201,0.0135,0.0178,0.0166,0.0185,0.0153,0.0182,0.018,0.022,0.0221,0.0221,0.0222,0,0,0.0478,0.0475,0.0481,0.0498,0.0467,0.046,0.0426,0.0361,0.0325,0.0322,0.0249,0.0184,0.0179,0.0143,0.011,0.0085,0.008,0.0132,0.0131,0.0159,0.0075,0.0055,0.0051,0.0075,0.0074,0.0073,0.0121,0,0.0515,0.0531,0.0508,0.0525,0.0532,0.0495,0.0443,0.039,0.0329,0.025,0.0181,0.0122,0.0139,0.0138,0.0101,0.0061,0.0069,0.0071,0.01,0.0101,0.0088,0.0044,0.0068,0.0119,0.0118,0.0118,0.0118,0,0.0548,0.0548,0.0569,0.0562,0.0562,0.0587,0.0499,0.0458,0.0309,0.0264,0.0174,0.0101,0.0021,0.0073,0.0016,0.0031,0.0075,0.0065,0.0066,0.0053,0.0074,0.0151,0.0113,0.0113,0.0114,0.0114,0.0114,0,0.0577,0.0595,0.0609,0.0603,0.0579,0.0624,0.0632,0.0505,0.0431,0.03,0.0215,0.0099,0.0056,0.0056,0.0029,0.0051,-0.0017,0.0002,0.0028,0.003,0.0051,0.0056,0.0009,0.0009,0.0008,0.0008,0.0008,0,0.0596,0.0623,0.0666,0.0682,0.0731,0.0717,0.0722,0.0676,0.0547,0.0393,0.0274,0.0118,0.0058,-0.0029,0.0008,-0.001,-0.0021,0.0018,0.0022,0.0043,0.0046,0.0051,0.0056,0.001,0.001,0.0009,0.0009,0,0.0628,0.0634,0.0675,0.0718,0.0767,0.0825,0.0859,0.0801,0.0688,0.0485,0.0447,0.0165,0.0046,-0.0021,-0.0059,-0.0046,-0.0048,-0.0027,0.0015,0.0023,0.0042,0.0045,0.0011,0.001,0.0009,0.0009,0.0008,0,0.0632,0.0659,0.0738,0.0781,0.0851,0.094,0.0969,0.0923,0.0798,0.047,0.0334,0.0147,-0.0029,-0.0094,-0.0141,-0.0085,-0.0065,-0.0028,-0.0006,0.0026,0.0034,0.0037,0.004,0.0007,0.0007,0.0007,0.0007,0,0.0646,0.0689,0.0711,0.0813,0.0914,0.0943,0.0983,0.0904,0.0712,0.0582,0.025,0.0112,-0.0062,-0.0132,-0.0094,-0.0062,-0.0053,-0.0034,-0.0031,-0.001,0.0022,0.0031,0.0035,0.0005,0.0005,0.0005,0.0005,0,0.0659,0.0687,0.0735,0.0827,0.0901,0.0913,0.0951,0.0826,0.0729,0.0363,0.0256,0.0037,-0.0097,-0.0124,-0.0117,-0.008,-0.0049,0.0009,0.0011,0.0013,-0.0019,0.002,-0.0005,0,0,0,0,0,0.0661,0.0701,0.0748,0.082,0.0867,0.0933,0.0882,0.0852,0.0669,0.0463,0.0361,0.0194,0.0068,-0.0036,0.0013,-0.0091,-0.0017,-0.0034,0.0062,-0.0007,-0.0005,-0.0048,0,0,0,0,0,0,0.0663,0.0715,0.0734,0.0779,0.0829,0.088,0.0868,0.0758,0.0628,0.0432,0.0384,0.0248,0.0165,0.0079,0.003,0.0015,0.009,-0.0115,-0.0113,-0.0009,-0.0006,-0.0004,-0.0048,0,0,0,0,0]}]]